[[{"header":{"parameterUnit":"m.s-1","parameterCategory":1,"la1":30.2991,"la2":30.254,"lo1":-89.0895,"lo2":-89.0444,"dy":0.0017,"dx":0.0017,"nx":28,"ny":28,"refTime":"2024-04-17T03:00:00:Z","depth":0,"parameterNumber":2,"parameterNumberName":"U-component_of_WINDS"},"data":[0,0,0,0,0,0,0,0,0,0,0,0,0,0,0,0,0,0,0,0,0,0,0,0,0,0,0,0,0,0,0,0,0,0,0,0,0,0,0,0,0,0,0,0,0,0,0,0,0,0,0,0,0,0,0,0,0,0,-2.4404,-2.4404,0,-2.4439,-2.444,-2.444,-2.4414,-2.4413,-2.4412,-2.4411,-2.4451,-2.4453,-2.4455,0,0,0,0,0,0,0,0,0,0,0,0,0,-2.4318,-2.4319,-2.4404,-2.4404,-2.4405,-2.4439,-2.444,-2.444,-2.4415,-2.4413,-2.4412,-2.4411,-2.445,-2.4453,-2.4455,0,0,0,0,0,0,0,0,0,0,0,0,0,-2.4354,-2.432,-2.4404,-2.4396,-2.4395,-2.4439,-2.444,-2.4441,-2.4415,-2.4413,-2.4411,-2.441,-2.4449,-2.4452,-2.4455,-2.451,0,0,-2.4465,-2.4467,0,0,0,0,0,0,0,0,-2.4352,-2.4358,-2.4397,-2.4396,-2.4396,-2.4421,-2.4424,-2.4464,-2.4415,-2.4408,-2.4411,-2.4409,-2.4442,-2.4446,-2.4457,-2.4512,-2.4513,-2.4465,-2.4467,-2.4469,-2.447,0,0,0,0,0,0,0,-2.435,-2.4356,-2.4418,-2.4397,-2.4397,-2.4392,-2.4395,-2.4431,-2.4434,-2.4408,-2.4406,-2.4411,-2.4442,-2.4454,-2.4457,-2.4514,-2.4465,-2.4468,-2.447,-2.4471,-2.4617,-2.4619,0,0,0,0,0,0,-2.4347,-2.4354,-2.4417,-2.4419,-2.4369,-2.4395,-2.4399,-2.4415,-2.4434,-2.4435,-2.4412,-2.4409,-2.4449,-2.4454,-2.4459,-2.4524,-2.4469,-2.4472,-2.4474,-2.4615,-2.4618,-2.462,0,0,0,0,0,0,-2.4346,-2.4353,-2.4415,-2.4386,-2.4394,-2.4398,-2.4416,-2.4416,-2.4428,-2.4437,-2.4438,-2.4423,-2.4448,-2.4454,-2.4497,-2.4525,-2.4473,-2.4476,-2.4613,-2.4616,-2.4619,-2.4654,0,0,0,0,0,0,-2.4343,-2.4353,-2.4372,-2.4387,-2.4395,-2.4452,-2.4418,-2.4418,-2.4433,-2.443,-2.4447,-2.4449,-2.4447,-2.4493,-2.4501,-2.4528,-2.4479,-2.461,-2.4614,-2.4618,-2.4651,-2.4658,-2.4665,0,0,0,0,0,-2.434,-2.4381,-2.4373,-2.4381,-2.4419,-2.4454,-2.4459,-2.4455,-2.4435,-2.4456,-2.4462,-2.4448,-2.4521,-2.4497,-2.4506,-2.4535,-2.4609,-2.4613,-2.4617,-2.4648,-2.4657,-2.4664,0,0,0,0,0,0,-2.437,-2.4383,-2.4374,-2.4421,-2.4436,-2.4449,-2.4474,-2.4464,-2.4487,-2.4483,-2.4478,-2.4483,-2.4528,-2.4536,-2.451,-2.459,-2.4562,-2.4568,-2.4582,-2.4591,-2.4597,-2.4594,-2.4481,0,0,0,0,0,-2.4383,-2.4408,-2.4418,-2.4458,-2.4467,-2.447,-2.4484,-2.448,-2.4496,-2.4503,-2.4512,-2.453,-2.4557,-2.4575,-2.46,-2.4653,-2.4657,-2.4677,-2.4684,-2.469,-2.4695,-2.4725,-2.4734,-2.4634,-2.4634,-2.4634,0,0,-2.4408,-2.4418,-2.4434,-2.4465,-2.4476,-2.4504,-2.4475,-2.4506,-2.4527,-2.4508,-2.4549,-2.4557,-2.4576,-2.4625,-2.4647,-2.4633,-2.4724,-2.4695,-2.47,-2.4702,-2.473,-2.474,-2.4748,-2.4637,-2.4637,-2.4636,0,0,-2.4467,-2.4477,-2.4512,-2.4525,-2.4542,-2.4544,-2.4553,-2.4568,-2.4572,-2.4613,-2.46,-2.4627,-2.4673,-2.4687,-2.4701,-2.4769,-2.4757,-2.4777,-2.4813,-2.4842,-2.485,-2.4857,-2.4881,-2.489,-2.4783,-2.4783,-2.4783,0,-2.4496,-2.4536,-2.4532,-2.4563,-2.4578,-2.4562,-2.4598,-2.4611,-2.4637,-2.4648,-2.4632,-2.4691,-2.4703,-2.4755,-2.4772,-2.4783,-2.4794,-2.4774,-2.4849,-2.4856,-2.4862,-2.4885,-2.4894,-2.4785,-2.4785,-2.4785,-2.4784,0,-2.4572,-2.46,-2.4626,-2.4651,-2.4668,-2.4702,-2.4704,-2.4723,-2.4718,-2.4722,-2.4766,-2.478,-2.4808,-2.4821,-2.4816,-2.4873,-2.4864,-2.4849,-2.4821,-2.4874,-2.4896,-2.4904,-2.4788,-2.4788,-2.4787,-2.4786,0,0,-2.4649,-2.4671,-2.4681,-2.4692,-2.4712,-2.4735,-2.4769,-2.4796,-2.4812,-2.4832,-2.4861,-2.4902,-2.4888,-2.4903,-2.4901,-2.4927,-2.4981,-2.4909,-2.4909,-2.4921,-2.5044,-2.5055,-2.5065,-2.4974,-2.4976,-2.4977,-2.5043,0,-2.471,-2.4767,-2.4765,-2.4819,-2.4846,-2.4833,-2.4864,-2.488,-2.4885,-2.491,-2.4917,-2.4946,-2.4926,-2.4935,-2.496,-2.4969,-2.5005,-2.4964,-2.5002,-2.5003,-2.4996,-2.5076,-2.5087,-2.5148,-2.5051,-2.5053,-2.5054,0,-2.4787,-2.4808,-2.4865,-2.4882,-2.4893,-2.492,-2.4945,-2.4969,-2.4988,-2.499,-2.5009,-2.5003,-2.5039,-2.5012,-2.5063,-2.5035,-2.5051,-2.5058,-2.506,-2.5062,-2.503,-2.508,-2.5168,-2.5177,-2.5067,-2.5066,-2.5065,0,-2.4838,-2.488,-2.492,-2.493,-2.4951,-2.497,-2.498,-2.4997,-2.5014,-2.5037,-2.5048,-2.5076,-2.5091,-2.5113,-2.5116,-2.5095,-2.5167,-2.514,-2.5171,-2.5171,-2.5186,-2.5184,-2.5276,-2.5198,-2.5197,-2.5197,-2.5197,0,-2.4905,-2.494,-2.4943,-2.4967,-2.5007,-2.5006,-2.5046,-2.5054,-2.507,-2.5097,-2.5089,-2.5115,-2.5117,-2.5144,-2.5147,-2.5189,-2.5196,-2.52,-2.52,-2.52,-2.52,-2.5209,-2.5205,-2.52,-2.5199,-2.5199,-2.5198,0,-2.4967,-2.497,-2.5013,-2.5029,-2.5034,-2.5063,-2.5078,-2.5102,-2.5108,-2.5142,-2.515,-2.516,-2.5191,-2.5197,-2.5234,-2.5236,-2.5287,-2.5283,-2.528,-2.5279,-2.531,-2.5307,-2.541,-2.5424,-2.5337,-2.5338,-2.5339,0,-2.5009,-2.5036,-2.5055,-2.5072,-2.5082,-2.511,-2.5127,-2.5128,-2.5146,-2.5171,-2.5193,-2.5224,-2.5248,-2.53,-2.5311,-2.534,-2.5337,-2.5371,-2.5341,-2.5341,-2.5337,-2.5335,-2.5338,-2.5376,-2.5377,-2.5378,-2.5379,0,-2.5083,-2.5084,-2.5108,-2.5134,-2.5154,-2.5174,-2.5194,-2.5209,-2.5212,-2.5234,-2.5265,-2.5285,-2.5323,-2.5354,-2.5384,-2.5396,-2.5388,-2.5388,-2.5397,-2.5397,-2.5394,-2.5396,-2.5295,-2.5386,-2.5385,-2.5384,-2.5384,-2.5384,-2.5136,-2.516,-2.5177,-2.5205,-2.522,-2.5238,-2.5262,-2.5271,-2.5297,-2.5327,-2.5327,-2.5362,-2.5383,-2.5421,-2.5435,-2.5464,-2.5453,-2.5466,-2.5469,-2.5472,-2.5475,-2.539,-2.547,-2.547,-2.5469,-2.5469,-2.5469,0,-2.521,-2.5221,-2.5246,-2.5273,-2.5296,-2.5286,-2.5308,-2.5328,-2.5358,-2.5378,-2.5402,-2.544,-2.547,-2.5484,-2.5515,-2.5536,-2.5533,-2.5544,-2.5542,-2.5545,-2.5483,-2.5472,-2.5545,-2.5545,-2.5545,-2.5545,-2.5545,-2.5545,-2.5251,-2.529,-2.5293,-2.5341,-2.5352,-2.5385,-2.5398,-2.5416,-2.5431,-2.5473,-2.5498,-2.5507,-2.5525,-2.5557,-2.5585,-2.5589,-2.5601,-2.5613,-2.5615,-2.5557,-2.5549,-2.5541,-2.5531,-2.5615,-2.5615,-2.5674,-2.5674,-2.5675]},{"header":{"parameterUnit":"m.s-1","parameterCategory":1,"la1":30.2991,"la2":30.254,"lo1":-89.0895,"lo2":-89.0444,"dy":0.0017,"dx":0.0017,"nx":28,"ny":28,"refTime":"2024-04-17T03:00:00:Z","depth":0,"parameterNumber":3,"parameterNumberName":"V-component_of_WINDS"},"data":[0,0,0,0,0,0,0,0,0,0,0,0,0,0,0,0,0,0,0,0,0,0,0,0,0,0,0,0,0,0,0,0,0,0,0,0,0,0,0,0,0,0,0,0,0,0,0,0,0,0,0,0,0,0,0,0,0,0,3.7669,3.767,0,3.7775,3.7776,3.7778,3.7817,3.7817,3.7817,3.7816,3.7922,3.7925,3.7928,0,0,0,0,0,0,0,0,0,0,0,0,0,3.7496,3.7499,3.7668,3.767,3.7671,3.7775,3.7777,3.7778,3.7817,3.7817,3.7817,3.7816,3.7921,3.7924,3.7928,0,0,0,0,0,0,0,0,0,0,0,0,0,3.7584,3.75,3.7668,3.7703,3.7708,3.7775,3.7777,3.7778,3.7817,3.7817,3.7816,3.7816,3.7919,3.7924,3.7929,3.7967,0,0,3.7943,3.7945,0,0,0,0,0,0,0,0,3.7579,3.759,3.7697,3.7701,3.7706,3.7783,3.7755,3.7842,3.7818,3.7776,3.7816,3.7816,3.7875,3.7884,3.7905,3.7972,3.7977,3.7943,3.7946,3.7948,3.7949,0,0,0,0,0,0,0,3.7573,3.7586,3.7711,3.7698,3.7704,3.7713,3.7725,3.7771,3.7827,3.7779,3.7782,3.7795,3.7878,3.79,3.7907,3.7978,3.7943,3.7947,3.795,3.7952,3.8085,3.8085,0,0,0,0,0,0,3.7561,3.758,3.7707,3.7714,3.764,3.7717,3.773,3.7758,3.7827,3.7837,3.7795,3.7796,3.7892,3.7902,3.7911,3.7963,3.7948,3.7952,3.7955,3.8084,3.8085,3.8086,0,0,0,0,0,0,3.7557,3.7572,3.7703,3.7648,3.7665,3.772,3.7752,3.7761,3.7783,3.7839,3.7848,3.7808,3.7892,3.7905,3.7954,3.7967,3.7954,3.7959,3.8083,3.8084,3.8085,3.8065,0,0,0,0,0,0,3.7552,3.7571,3.7586,3.7648,3.7668,3.7744,3.7753,3.7763,3.7792,3.7794,3.7853,3.7862,3.7893,3.7947,3.7958,3.7973,3.7962,3.8082,3.8084,3.8085,3.8065,3.8065,3.8066,0,0,0,0,0,3.7546,3.7575,3.7587,3.7602,3.7689,3.7745,3.7756,3.7792,3.7792,3.7809,3.7845,3.786,3.7963,3.7951,3.7965,3.7981,3.8082,3.8083,3.8085,3.8065,3.8065,3.8066,0,0,0,0,0,0,3.7511,3.7584,3.7598,3.7648,3.769,3.7752,3.7773,3.7791,3.7834,3.7834,3.7875,3.7888,3.7934,3.7962,3.7948,3.8023,3.8024,3.8028,3.8003,3.8005,3.8005,3.7998,3.7966,0,0,0,0,0,3.751,3.755,3.7611,3.7649,3.767,3.7718,3.7743,3.7768,3.7812,3.783,3.7869,3.7912,3.7954,3.798,3.8022,3.8069,3.8083,3.8087,3.8087,3.8087,3.8091,3.812,3.8123,3.8091,3.8091,3.8091,0,0,3.7507,3.7551,3.7574,3.7643,3.7679,3.772,3.7732,3.7774,3.7805,3.7836,3.7886,3.7916,3.7966,3.8014,3.8038,3.8039,3.8103,3.8089,3.8089,3.8093,3.8122,3.8124,3.8127,3.8092,3.8092,3.8092,0,0,3.7522,3.7559,3.7596,3.7632,3.7687,3.7719,3.7728,3.7787,3.7809,3.786,3.7885,3.7921,3.7992,3.8028,3.8054,3.8085,3.8102,3.8097,3.81,3.8127,3.813,3.8132,3.8144,3.8148,3.81,3.81,3.81,0,3.7511,3.7574,3.7612,3.7654,3.7684,3.7717,3.7755,3.7787,3.7852,3.7872,3.7873,3.7964,3.8,3.8058,3.8066,3.8086,3.8098,3.8091,3.8126,3.8129,3.8132,3.8144,3.8148,3.8099,3.8099,3.8099,3.8099,0,3.7558,3.7601,3.7624,3.7689,3.7721,3.776,3.7805,3.7833,3.7855,3.7886,3.7938,3.7982,3.8034,3.805,3.807,3.8111,3.8111,3.8118,3.812,3.8134,3.8146,3.8151,3.8098,3.8098,3.8099,3.8099,0,0,3.7554,3.7641,3.7649,3.7679,3.7742,3.7776,3.7817,3.787,3.7894,3.7937,3.7973,3.8033,3.8042,3.8072,3.8097,3.8121,3.8144,3.8126,3.8128,3.8129,3.8194,3.8189,3.8194,3.8155,3.8156,3.8157,3.8191,0,3.7579,3.7655,3.7692,3.7752,3.7793,3.7825,3.786,3.7903,3.7934,3.7973,3.8006,3.8049,3.8056,3.8075,3.81,3.8136,3.8158,3.8134,3.8189,3.8191,3.8177,3.82,3.8194,3.8224,3.8195,3.8196,3.8197,0,3.7617,3.7664,3.7728,3.7789,3.7807,3.7839,3.7891,3.7928,3.7977,3.7998,3.8033,3.8057,3.8101,3.8099,3.8161,3.8144,3.8168,3.8189,3.8191,3.8199,3.8195,3.8209,3.8234,3.8239,3.8204,3.8204,3.8203,0,3.761,3.7688,3.7737,3.7762,3.7833,3.7855,3.7886,3.7934,3.7964,3.8009,3.8029,3.8078,3.8105,3.8142,3.8179,3.8173,3.8237,3.8237,3.8256,3.8255,3.8269,3.8268,3.8299,3.8282,3.8282,3.8282,3.8282,0,3.7634,3.7673,3.7735,3.7766,3.781,3.7852,3.7894,3.7927,3.797,3.8007,3.8037,3.8071,3.8117,3.8157,3.8185,3.8233,3.8244,3.8262,3.827,3.8261,3.8259,3.8278,3.8278,3.8283,3.8283,3.8283,3.8283,0,3.7634,3.7677,3.7733,3.7797,3.7814,3.7844,3.7898,3.7929,3.7962,3.8009,3.8022,3.8073,3.8122,3.8162,3.8225,3.8244,3.8294,3.8302,3.8278,3.8283,3.83,3.8298,3.8346,3.8355,3.833,3.833,3.833,0,3.7647,3.7678,3.7746,3.7774,3.7805,3.7849,3.788,3.7923,3.7954,3.8013,3.8037,3.8088,3.8131,3.8207,3.8249,3.8298,3.8308,3.8321,3.8315,3.8306,3.831,3.8309,3.8313,3.8322,3.8322,3.8322,3.8322,0,3.7667,3.7687,3.7732,3.7785,3.7823,3.7866,3.791,3.793,3.7981,3.8015,3.8066,3.81,3.8165,3.8216,3.8269,3.83,3.832,3.8324,3.8331,3.8322,3.8308,3.8318,3.8281,3.8323,3.8322,3.8322,3.8322,3.8322,3.7674,3.7704,3.7758,3.7807,3.7845,3.7886,3.7919,3.7957,3.8001,3.8059,3.8081,3.8134,3.8183,3.8258,3.8288,3.833,3.8332,3.8342,3.8345,3.8347,3.8347,3.8301,3.8339,3.8339,3.8339,3.8339,3.8339,0,3.7697,3.7733,3.7779,3.7841,3.788,3.7897,3.7947,3.7978,3.8025,3.807,3.8113,3.8172,3.8222,3.8269,3.8321,3.8345,3.8355,3.8357,3.8356,3.8363,3.8341,3.833,3.8348,3.8348,3.8348,3.8348,3.8348,3.8348,3.7713,3.7765,3.7792,3.7864,3.79,3.7953,3.798,3.8018,3.8055,3.8121,3.8163,3.8194,3.824,3.8296,3.8343,3.8355,3.8373,3.8373,3.8388,3.8366,3.8365,3.8363,3.8354,3.8376,3.8376,3.8408,3.8408,3.8408]}]]